Regional Weather Roundup
Issued by NWS Upton, NY

Home | Current Version | Previous Version | Text Only | Print | Product List | Glossary On
Versions: 1 2 3 4 5 6 7 8 9 10 11 12 13 14 15 16 17 18 19 20 21 22 23 24 25 26 27 28 29 30 31 32 33 34 35 36 37 38 39 40 41 42 43 44 45 46 47 48 49 50
000
ASUS41 KOKX 081404
RWROKX

REGIONAL WEATHER ROUNDUP
NATIONAL WEATHER SERVICE NEW YORK NY
900 AM EST MON FEB 08 2016

NOTE: "FAIR" INDICATES FEW OR NO CLOUDS BELOW 12,000 FEET WITH NO
SIGNIFICANT WEATHER AND/OR OBSTRUCTIONS TO VISIBILITY.

NYZ071-072-176-178-NJZ106-104-081500-
NEW YORK CITY METRO AREA


CITY           SKY/WX    TMP DP  RH WIND       PRES   REMARKS
CENTRAL PARK   CLOUDY    37  23  56 NE13G25   29.79F WCI  29
LAGUARDIA APRT CLOUDY    37  26  64 NE21G29   29.78F WCI  26
KENNEDY INTL   LGT SNOW  34  29  82 NE16      29.78F WCI  24
NEWARK/LIBERTY CLOUDY    38  27  64 NE16      29.78F WCI  29
BRNX BOT. GARD   N/A     36  25  64 NE15      29.77F WCI  26
TETERBORO      CLOUDY    38  24  57 NE9       29.77F WCI  31
$$

NYZ177-179-078>081-081500-
LONG ISLAND NEW YORK

CITY           SKY/WX    TMP DP  RH WIND       PRES   REMARKS
FARMINGDALE    LGT SNOW  33  29  85 NE17G23   29.77S VSB 1   WCI  22
ISLIP          SNOW      31  27  85 NE23G30   29.75S VSB 1/2 WCI  18
SHIRLEY        SNOW      31  29  92 N9G23     29.78R VSB 1/2 WCI  23
RIVERHEAD        N/A     32  28  86 E8        29.75R WCI  25
WESTHAMPTON    SNOW      30  29  96 N16G26    29.77R VSB 1/4 WCI  19
EAST HAMPTON   SNOW      30  30 100 NE15G23   29.75S VSB 1/4 WCI  19
MONTAUK POINT    N/A     31  30  96 N18G31    29.75R WCI  19
$$

NYZ052-065-067-081500-
HUDSON VALLEY

CITY           SKY/WX    TMP DP  RH WIND       PRES   REMARKS
WHITE PLAINS   LGT SNOW  33  24  69 NE15G21   29.77F FOG     WCI  23
NEWBURGH       PTSUNNY   34  23  64 E15       29.81F WCI  24
MONTGOMERY     CLOUDY    34  24  67 NE10      29.80F WCI  26
POUGHKEEPSIE   CLOUDY    35  18  49 E10       29.83S WCI  27
ALBANY         CLOUDY    30  20  66 N7        29.90R WCI  23
$$

NJZ001-105-106-008-010-013-015-019>022-104-081500-
NEW JERSEY

CITY           SKY/WX    TMP DP  RH WIND       PRES   REMARKS
NEWARK/LIBERTY CLOUDY    38  27  64 NE16      29.78F WCI  29
TETERBORO      CLOUDY    38  24  57 NE9       29.77F WCI  31
CALDWELL       CLOUDY    37  25  61 NE7       29.79S WCI  32
MORRISTOWN     CLOUDY    37  27  65 NE8G16    29.79S WCI  31
SOMERVILLE     CLOUDY    38  26  62 N6        29.78R WCI  33
SUSSEX         CLOUDY    34  24  67 NE12      29.80R WCI  25
ANDOVER          N/A     33  25  72 NE9       29.79R WCI  25
TRENTON        CLOUDY    37  27  67 NE9       29.77R WCI  30
MILLVILLE      CLOUDY    39  30  70 N9        29.77R WCI  33
ATLANTIC CITY  LGT RAIN  37  34  89 NE15G21   29.75R FOG     WCI  28
WRIGHTSTOWN    CLOUDY    37  36  94 N10       29.74R WCI  30
TOMS RIVER     CLOUDY    36  30  80 NE14G20   29.77R WCI  27
BELMAR         CLOUDY    36  27  69 NE9G17    29.76R WCI  29
$$

PAZ047>061-062-071-081500-
EASTERN PENNSYLVANIA

CITY           SKY/WX    TMP DP  RH WIND       PRES   REMARKS
PHILADELPHIA   CLOUDY    39  26  59 N14       29.79R WCI  31
ALLENTOWN      CLOUDY    37  25  61 N6        29.80R WCI  32
SCRANTON       CLOUDY    33  23  66 CALM      29.79S
$$

CTZ002-004>006-009-010-012-RIZ004-006-007-MAZ004-011-015-081500-
SOUTHERN NEW ENGLAND
 IN CT

CITY           SKY/WX    TMP DP  RH WIND       PRES   REMARKS
BRADLEY INTL   CLOUDY    26   8  46 N20       29.85F WCI  12
HARTFORD       CLOUDY    28  14  55 N14G25    29.84F WCI  17
DANBURY        CLOUDY    31  19  61 NE10      29.81S WCI  22
WTRBRY/OXFORD  NOT AVBL
BRIDGEPORT     LGT SNOW  31  26  82 N12       29.81R WCI  22
MERIDEN        LGT SNOW  29  18  63 N14G22    29.82F WCI  18
NEW HAVEN      LGT SNOW  29  24  82 N15G25    29.80S VSB 1   WCI  18
CHESTER        SNOW      28  27  93 NE10G20   29.78F VSB 1/2 WCI  19
GROTON         SNOW      28  28 100 N17G26    29.77S VSB 1/4 WCI  16
WILLIMANTIC    LGT SNOW  26  17  68 N15G24    29.82S WCI  14

 IN RI

CITY           SKY/WX    TMP DP  RH WIND       PRES   REMARKS
PROVIDENCE     SNOW      27  24  89 N22G32    29.79S VSB 1/4 WCI  13
BLOCK ISLAND   CLOUDY    32  30  93 NE22G35   29.71S VSB 1/2 WCI  19
WESTERLY       SNOW      29  27  92 N15G23    29.76S VSB 1/4 WCI  18

 IN MA

CITY           SKY/WX    TMP DP  RH WIND       PRES   REMARKS
BOSTON         LGT SNOW  25  19  78 N28G37    29.86S WCI   9
WORCESTER      CLOUDY    18   3  52 NE14G26   29.80F WCI   4
WESTFIELD      CLOUDY    27   3  35 N13       29.87S WCI  16
PROVINCETOWN   LGT SNOW  31  27  85 NE30G39   29.78R FOG     WCI  16
NANTUCKET      SNOW      34  33  96 NE36G47   29.63S VSB 1/2 WCI  19
$$

ANZ330-335-338-340-345-350-353-355-081500-
COASTAL MARINE OBSERVATIONS


STATION/POSITION TIME  SKY/WX   TEMP    WIND        PRES    VSBY  WAVE
                                AIR SEA DIR/SP/G                  HT/PER
                 (UTC)          (F)     (DEG/KT/KT) (MB)    (MI)  (FT/S)
NY HARB ENTRANCE 1250            36 44   40/ 25/ 31 1006.4         11/10
4S FIRE IS       NOT AVBL
20S FIRE ISLAND  1250            35 45   30/ 29/ 35 1005.1         15/10
GREAT SOUTH BAY  NOT AVBL
23SW MTP         1350            34 46   30/ 31/ 37 1004.8         15/10
HUDSON CANYON    1250            39 50              1001.1         20/11
KINGS POINT      1300            37 39   70/ 13/ 19 1008.2
EXECUTION ROCKS  NOT AVBL
CENTRAL LI SOUND NOT AVBL
EASTERN LI SOUND 1300            33 42   20/ 17/ 23   N/A
ROBBINS REEF     1300            38      50/ 19/ 22 1007.6
$$


>>>>>>>>>>>>>>>>>>>>>>>>>>>> KEY <<<<<<<<<<<<<<<<<<<<<<<<<<<
>                                                          <
>     SKY/WX - SKY CONDITION/PRESENT WEATHER               <
>     TMP    - TEMPERATURE IN FAHRENHEIT                   <
>     DP     - DEWPOINT IN FAHRENHEIT                      <
>     RH     - RELATIVE HUMIDITY IN PERCENT                <
>     WIND   - DIRECTION AND SPEED IN MPH                  <
>     PRES   - MEAN SEA LEVEL PRESSURE IN INCHES OF HG     <
>     WCI    - WIND CHILL INDEX                            <
>     VSB    - VISIBILITY IN MILES                         <
>     HX     - HEAT INDEX                                  <
>     TC     - TEMPERATURE IN CELSIUS                      <
>     VRB    - VARIABLE WIND DIRECTION                     <
>                                                          <
>>>>>>>>>>>>>>>>>>>>>>>>>>>> KEY <<<<<<<<<<<<<<<<<<<<<<<<<<<





USA.gov is the U.S. government's official web portal to all federal, state and local government web resources and services.